Tri Cities Regional Tn Va Airport
KTRI : now visible

Airfield :











YOU CAN JOIN US ON...

 
LOGIN :

Register | Disclaimer

   EN    FR    IT 

 









Legend :    VFR   Marginal VFR   IFR   Intensive IFR   Very Intensive IFR
Visi :
Ceiling :
>= 8 km
>= 3000ft
5 to 8 km
1000 to 3000 ft
1500m to 5 km
500 to 1000 ft
800 to 1500m
200 to 500 ft
< 800m
< 200 ft
Symbols :   Thunderstorms  Fog  Heavy snow  Heavy precipitations  Wind > 20 kt






- Airport Elevation : 1519 ft
- IATA code : TRI


KTRI - Tri Cities Regional Tn Va

CURRENT METAR :
  • 082053Z 19007KT 10SM SCT250 13/02 A3018 RMK AO2 SLP213 T01330017 56022

EXPIRED METARs :
  • 081953Z 18005KT 10SM SCT250 14/02 A3020 RMK AO2 SLP220 T01440017
  • 081853Z VRB03KT 10SM BKN250 14/02 A3021 RMK AO2 SLP224 T01390017

TAF KTRI
Valid from the 08 at 18:00 until the 09 at 18:00 UTC


081735Z 0818/0918 14006KT P6SM SCT050 BKN250
FM090600 11003KT P6SM BKN050 WS017/18034KT
FM091500 17008KT P6SM VCSH BKN050 WS019/21039KT



MET'MAP, your aeronautical weather chart ! - Copyright ORBIFLY December 2007 - Disclaimer

ORBIFLY MET'MAP TEAM :

Programming & Development : Alexandra Zaïnal
Concept & original design : Baudouin d'Aumeries
Assistance for programming : Marc-Olivier Méhu
Technical & hardware support : Manuel Goepfert

Contact : metmap@orbifly.com




SOURCES & CREDITS :

   NOAA       Earth
Advisory